Starlink 32648

operational
NORAD ID: 62301 Int'l Des: 2024-239 Owner: SPXS Country: US Constellation: starlink
LEOCIRCULAR

About Starlink 32648

Description loading...

Live Position

Loading 3D Globe...

Upcoming Passes

Altitude History

Altitude vs Time

uPlot chart will show altitude changes over time

Two-Line Element Set

1 62301U 24239A 25306.47215735 .00058692 00000-0 19745-2 0 9990
2 62301 53.1599 52.2481 0001966 129.6426 230.4749 15.30260034 50086
Epoch: Nov 2, 2025 • Age: 8 hours

Current Status

Altitude 477.1 km
Velocity 7.63 km/s
Sub-Earth Point 32.83°N, 106.8°E
Launch Date Dec 13, 2024
Age 0.8 years
Type internet

Technical Details

Classification Payload
Mass 730.00 kg
Dry Mass 700.00 kg
Total Mass 730.00 kg
Length 0.30 m
Diameter 4.10 m
Span 29.00 m
Shape Box + pan
Manufacturer SPXS
Bus Type Starlink V2M
Phase Status In Orbit
Owner/State SPXS/US

Large Constellations

Loading constellations...